EHI
0 0 4 17 38 60 67 55 37 24 15 7 2 0 0 0 0 0 0 0 0 0 0 0 0 0 0 0 0 0 0 0 0 0 0 0 0 0 0 0 0 0 0
0 0 2 10 25 41 46 39 31 24 15 7 2 0 0 0 0 0 0 0 0 0 0 0 0 0 0 0 0 0 0 0 0 0 0 0 0 0 0 0 0 0 0
0 0 0 3 9 17 21 25 32 30 18 6 1 0 0 0 0 0 0 0 0 0 0 0 0 0 0 0 0 0 0 0 0 0 0 0 0 0 0 0 0 0 0
0 0 0 0 2 4 8 18 29 28 16 4 0 0 0 0 1 0 0 0 0 0 0 0 0 0 0 0 0 0 0 0 0 0 0 0 0 0 0 0 0 0 0
0 0 0 0 0 0 3 9 14 12 6 1 0 0 0 0 0 0 0 0 0 0 0 0 0 0 0 0 0 0 0 0 0 0 0 0 0 0 0 0 0 0 0
0 0 0 0 0 0 0 1 1 0 0 0 0 0 0 0 0 0 0 0 0 0 0 0 0 0 0 0 0 0 0 0 0 0 0 0 0 0 0 0 0 0 0
0 0 0 0 0 0 0 0 0 0 0 0 0 0 0 0 0 0 0 0 0 0 0 0 0 0 0 0 0 0 0 0 0 0 0 0 0 0 0 0 0 0 0
0 0 0 0 0 0 0 0 0 0 0 0 0 0 0 0 0 0 0 0 0 0 0 0 0 0 0 0 0 0 0 0 0 0 0 0 0 0 0 0 0 0 0
0 0 0 0 0 0 0 0 0 0 0 0 0 0 0 0 0 0 0 0 0 0 0 0 0 0 0 0 0 0 0 0 0 0 0 0 0 0 0 0 0 0 0
0 0 0 0 0 0 0 0 0 0 0 0 0 0 0 0 0 0 0 0 0 0 0 0 0 0 0 0 0 0 0 0 0 0 0 0 0 0 0 0 0 0 0
0 0 0 0 0 0 0 0 0 0 0 0 0 0 0 0 0 0 0 0 0 0 0 0 0 0 0 0 0 0 0 0 0 0 0 0 0 0 0 0 0 0 0
0 0 0 0 0 0 0 0 0 0 0 0 0 0 0 0 0 0 0 0 0 0 0 0 0 0 0 0 0 0 0 0 0 0 0 0 0 0 0 0 0 0 0
0 0 0 0 0 0 0 0 0 0 0 0 0 0 0 0 0 0 0 0 0 0 0 0 0 0 0 0 0 0 0 0 0 0 0 0 0 0 0 0 0 0 0
0 0 0 0 0 0 0 0 0 0 0 0 0 0 0 0 0 0 0 0 0 0 0 0 0 0 0 0 0 0 0 0 0 0 0 0 0 0 0 0 0 0 0
0 0 0 0 0 0 0 0 0 0 0 0 0 0 0 0 0 0 0 0 0 0 0 0 0 0 0 0 0 0 0 0 0 0 0 0 0 0 0 0 0 0 0
0 0 0 0 0 0 0 0 0 0 0 0 0 0 0 0 0 0 0 0 0 0 0 0 0 0 0 0 0 0 0 0 0 0 0 0 0 0 0 0 0 0 0
0 0 0 0 0 0 0 0 0 0 0 0 0 0 0 0 0 0 0 0 0 0 0 0 0 0 0 0 0 0 0 0 0 0 0 0 0 0 0 0 0 0 0
0 0 0 0 0 0 0 0 0 0 0 0 0 0 0 0 0 0 0 0 0 0 0 0 0 0 0 0 0 0 0 0 0 0 0 0 0 0 0 0 0 0 0
0 0 0 0 0 0 0 0 0 0 0 0 0 0 0 0 0 0 0 0 0 0 0 0 0 0 0 0 0 0 0 0 0 0 0 0 0 0 0 0 0 0 0
0 0 0 0 0 0 0 0 0 0 0 0 0 0 0 0 0 0 0 0 0 0 0 0 0 0 0 0 0 0 0 0 0 0 0 0 0 0 0 0 0 0 0
0 0 0 0 0 0 0 0 0 0 0 0 0 0 0 0 0 0 0 0 0 0 0 0 0 0 0 0 0 0 0 0 0 0 0 0 0 0 0 0 0 0 0
0 0 0 0 0 0 0 0 0 0 0 0 0 0 0 0 0 0 0 0 0 0 0 0 0 0 0 0 0 0 0 0 0 0 0 0 0 0 0 0 0 0 0
0 0 0 0 0 0 0 0 0 0 0 0 0 0 0 0 0 0 0 0 0 0 0 0 0 0 0 0 0 0 0 0 0 0 0 0 0 0 0 0 0 0 0
0 0 0 0 0 0 0 0 0 0 0 0 0 0 0 0 0 0 0 0 0 0 0 0 0 0 0 0 0 0 0 0 0 0 0 0 0 0 0 0 0 0 0
0 0 0 0 0 0 0 0 0 0 0 0 0 0 0 0 0 0 0 0 0 0 0 0 0 0 0 0 0 0 0 0 0 0 0 0 0 0 0 0 0 0 0
0 0 0 0 0 0 0 0 0 0 0 0 0 0 0 0 0 0 0 0 0 0 0 0 0 0 0 0 0 0 0 0 0 0 0 0 0 0 0 0 0 0 0
Wind_Speed
5 4 3 2 3 5 6 7 7 7 5 3 3 3 3 2 2 2 3 2 3 3 4 5 3 5 5 6 8 8 10 10 9 11 13 13 15 15 12 12 12 12 13
5 4 2 2 4 5 7 7 7 6 4 3 2 2 2 1 2 2 3 3 4 4 3 5 6 5 6 7 7 8 9 10 9 11 14 16 15 13 13 10 10 13 13
8 7 6 6 7 7 7 7 8 7 6 4 4 4 3 3 2 1 2 4 5 5 5 6 7 7 9 8 8 10 11 11 12 12 12 14 17 15 14 17 16 15 13
10 10 10 10 11 11 10 11 11 11 8 6 5 4 3 3 4 4 3 4 4 6 7 8 8 9 10 11 11 11 11 13 14 12 11 14 15 17 17 16 16 16 15
12 13 13 13 13 13 12 12 12 12 11 10 8 5 5 4 3 5 5 7 6 6 8 8 9 10 11 12 13 13 14 13 14 14 14 15 14 17 17 19 18 15 15
13 14 14 13 13 12 11 11 11 11 11 10 9 9 8 7 7 8 8 8 8 8 10 11 11 12 13 13 14 14 16 15 16 15 14 15 15 15 15 18 19 16 15
11 12 12 12 12 12 11 10 11 10 10 10 9 8 8 7 7 9 10 11 11 11 12 13 13 14 14 15 15 15 16 16 17 16 14 14 14 13 14 15 17 18 15
10 11 11 10 10 11 10 10 10 9 9 8 7 7 8 8 8 10 11 13 12 13 15 15 15 16 16 16 15 15 16 14 15 16 16 13 13 12 12 12 13 15 15
9 9 10 10 10 10 10 9 9 8 8 8 8 7 8 9 10 11 12 12 12 14 16 16 16 16 16 15 15 13 14 14 14 14 14 12 11 11 10 10 10 12 14
8 8 8 9 9 8 8 8 8 8 8 9 9 9 10 11 11 13 14 14 14 14 15 15 15 14 14 14 13 13 12 13 12 11 13 13 11 10 9 9 9 10 12
7 7 7 7 7 7 7 7 8 9 9 10 10 11 11 12 13 13 14 13 13 13 13 13 13 13 12 12 11 12 13 13 13 12 13 13 13 10 9 9 9 10 10
5 5 6 6 6 7 8 8 9 10 11 11 11 12 12 13 13 13 12 12 12 11 11 11 11 11 11 11 12 11 12 13 13 13 13 13 11 12 10 9 10 10 10
3 4 5 6 7 8 8 9 10 11 11 12 13 13 13 13 12 12 11 11 11 10 10 10 10 11 11 11 11 11 12 13 13 13 13 13 12 12 10 11 10 9 10
2 5 6 7 7 8 9 10 11 11 12 13 13 13 12 12 11 11 10 10 10 10 10 10 11 11 11 10 12 13 14 13 13 12 11 12 12 13 13 11 11 10 10
3 5 7 8 8 9 10 11 11 11 12 12 12 12 11 11 10 10 9 9 9 10 10 11 11 11 9 12 16 16 16 15 13 12 11 11 14 18 14 12 11 10 9
5 7 8 8 9 10 11 11 11 11 11 11 11 11 10 10 10 9 9 9 9 9 10 10 11 12 10 15 20 19 17 15 13 11 12 12 13 16 20 22 21 17 12
7 7 8 8 8 9 9 9 10 10 9 9 9 10 10 10 10 10 9 9 9 10 10 11 12 13 12 15 20 24 19 14 11 11 11 11 12 16 15 18 20 16 16
7 7 7 7 7 7 7 8 9 9 9 9 9 9 10 10 9 9 9 10 9 10 10 11 12 11 10 14 20 27 17 12 12 11 10 12 14 15 18 16 11 7 8
5 5 5 6 6 6 7 7 8 8 8 9 9 9 9 9 9 9 10 9 9 10 10 11 11 12 11 13 18 25 14 12 14 12 11 14 15 19 22 13 8 3 2
4 4 4 5 5 5 6 7 7 8 9 9 9 8 8 8 9 9 9 9 9 10 11 11 12 13 14 13 16 23 12 13 12 11 12 15 19 21 19 11 8 5 4
3 3 4 5 4 4 5 6 7 8 8 7 7 7 7 8 9 9 9 10 10 10 10 11 11 12 13 15 16 20 14 14 13 10 10 11 22 19 15 12 9 9 7
3 4 5 4 3 3 5 6 7 7 7 6 6 6 7 8 9 10 9 8 9 10 10 10 10 9 11 13 15 17 16 18 13 10 10 11 20 15 13 10 13 14 10
4 4 4 3 1 2 4 7 8 8 8 7 7 7 8 8 9 10 9 8 8 9 9 9 9 9 10 12 15 15 16 18 13 10 14 16 17 12 9 13 14 10 8
4 3 3 1 2 3 5 7 8 8 8 8 7 7 7 8 8 7 8 8 9 11 11 11 11 10 11 13 13 13 13 15 13 11 12 12 12 12 10 9 9 9 9
3 2 2 2 3 5 6 7 7 8 8 8 7 7 7 7 7 6 4 6 7 7 9 12 11 10 11 14 18 15 13 14 14 12 7 9 10 10 9 7 7 7 8
3 3 2 3 4 6 7 7 7 8 8 7 7 7 7 7 8 8 4 4 3 7 5 7 10 10 10 14 17 19 17 17 20 11 9 10 10 10 9 7 7 7 8
Wind_Direction
12 353 292 227 169 149 143 143 137 132 144 158 174 163 153 154 139 107 80 62 32 22 348 329 344 326 330 332 321 320 307 297 307 298 291 288 282 276 272 266 269 276 279
35 42 49 118 135 128 119 122 120 118 129 128 125 123 134 154 88 84 74 35 31 10 7 4 330 346 326 307 317 315 307 306 303 299 298 293 287 278 278 277 268 269 273
45 64 73 85 96 97 100 99 96 94 85 108 121 127 145 182 169 67 44 19 5 4 357 342 333 328 311 313 316 300 299 304 302 289 291 294 293 300 293 289 282 275 266
64 72 81 85 88 90 90 87 84 80 76 75 67 53 17 12 19 343 357 338 338 337 332 328 324 316 311 307 294 306 305 294 291 291 281 277 284 289 291 283 277 277 272
77 80 82 85 87 86 84 81 76 69 60 52 49 31 24 10 353 334 337 318 316 314 315 318 316 310 301 302 301 295 290 290 288 290 290 286 279 273 273 281 282 276 273
85 86 87 86 84 81 78 74 69 62 56 50 45 35 25 5 348 336 329 319 313 311 310 314 310 303 301 301 297 294 287 284 285 283 281 280 278 279 279 280 283 284 283
94 89 84 80 75 69 65 65 65 60 54 49 42 31 12 345 335 332 327 318 312 310 316 317 310 303 303 299 294 289 285 283 280 278 277 278 279 283 282 281 283 287 289
92 84 77 73 70 65 58 55 56 51 44 37 26 15 356 338 335 335 322 312 308 311 315 307 301 300 297 295 293 290 286 284 283 281 281 280 278 278 276 276 281 283 284
95 86 77 67 61 57 51 46 42 35 23 12 358 346 340 332 325 316 304 308 311 306 306 307 302 298 297 295 294 288 291 290 286 284 282 279 279 278 276 275 272 275 279
100 82 69 60 54 51 49 38 27 14 1 348 342 335 329 322 316 310 312 309 308 309 307 304 304 303 301 301 301 299 298 298 293 289 285 283 280 278 275 273 270 266 270
98 76 62 53 45 32 23 14 7 355 346 340 335 328 324 321 316 313 317 319 316 313 307 307 308 309 309 307 302 301 304 302 299 295 290 286 281 276 272 269 265 263 261
82 66 44 28 19 13 5 358 350 344 338 334 328 326 324 323 322 323 324 319 314 311 311 310 309 310 309 310 311 313 310 303 299 296 294 291 286 279 274 268 263 259 254
48 22 18 8 7 0 355 347 341 341 336 334 330 331 329 329 327 325 323 318 315 313 310 309 314 314 313 314 316 314 308 302 299 297 295 292 287 283 278 273 268 260 254
27 5 356 2 1 353 350 343 343 343 340 336 334 334 334 331 329 327 324 320 318 314 314 317 314 314 317 331 335 321 308 299 296 295 295 295 291 287 285 282 276 269 257
2 2 0 2 353 353 350 348 346 346 343 340 340 341 337 333 328 327 327 324 320 317 319 320 325 334 340 4 343 325 311 304 301 303 306 302 297 294 296 293 285 276 261
360 1 5 359 357 356 352 349 348 347 345 344 343 339 333 328 326 328 327 326 328 331 336 344 345 343 4 2 343 332 316 306 306 312 315 312 307 312 306 299 290 275 258
355 359 1 2 0 358 352 346 346 347 346 344 340 332 329 325 324 322 327 339 345 350 350 349 348 345 12 5 344 337 318 307 315 318 320 321 323 318 315 305 293 272 245
357 4 1 5 3 0 357 350 348 347 346 343 337 333 332 330 333 340 353 355 353 352 350 352 353 350 15 11 349 339 320 326 328 328 334 336 330 327 324 311 298 267 222
25 26 17 6 4 7 359 351 350 349 349 348 346 345 345 346 354 1 360 356 350 351 350 0 359 356 3 11 353 344 330 338 333 337 351 348 338 331 332 330 330 335 171
45 28 9 4 13 11 357 351 350 356 359 358 357 357 359 359 360 358 353 353 349 354 355 2 2 0 356 1 355 345 341 342 335 340 350 349 341 337 343 351 358 22 73
46 13 1 6 12 357 347 343 354 5 358 356 0 2 357 353 352 348 349 348 349 353 358 3 4 359 351 353 358 347 348 343 332 339 349 342 337 342 355 9 24 31 69
37 13 358 1 358 343 336 337 353 350 342 342 347 351 348 346 346 340 341 347 350 352 0 1 2 356 351 354 354 344 342 339 335 343 350 338 335 346 15 29 32 38 62
26 14 356 352 348 335 327 327 334 331 326 326 335 339 340 341 346 342 347 356 5 0 359 358 1 358 354 354 354 346 341 338 340 347 349 340 343 357 27 36 38 46 61
29 16 9 26 34 340 322 319 323 324 316 319 324 324 329 343 354 354 3 9 13 6 1 2 2 1 358 359 357 350 350 347 350 348 341 342 4 17 24 41 50 56 62
44 46 52 30 354 327 321 327 335 330 327 324 322 323 336 352 340 8 25 15 49 33 12 9 0 5 1 356 349 349 352 350 345 335 349 13 18 16 16 41 60 67 73
81 91 68 355 334 327 333 346 347 340 336 339 347 344 350 355 350 355 20 128 97 144 114 60 19 18 9 343 347 350 343 339 337 352 16 16 16 14 10 20 54 71 75